Flag for Germany Weather past 2 weeks in Lage, North Rhine-Westphalia, Germany

Now
57 °F

Sunny.


Feels Like: 56 °F
Forecast: 47 / 60 °F
Wind: 5 mph from Southwest

Location: Bad Lippspringe

Current Time: May 6, 2015 at 9:33:56 AM

Latest Report: May 6, 2015 at 9:00 AM


Visibility: 16 mi

Pressure: 29.89 "Hg

Humidity: 59%

Dew point: 42 °F

Location of LageLocation

Historic Weather in Lage — Graph

°F

Lage temperature yesterday

Maximum temperature yesterday: 75 °F (at 3:00 PM)
Minimum temperature yesterday: 48 °F (at 11:00 PM)
Average temperature yesterday: 63 °F

Past Weeks' High & Low Weather Summary

 TemperatureHumidityPressure
High75 °F (May 5, 3:00 PM)100% (May 1, 5:00 AM)30.45 "Hg (May 1, 5:00 AM)
Low30 °F (Apr 29, 6:00 AM)24% (Apr 21, 5:00 PM)29.47 "Hg (May 5, 5:00 AM)
Average51 °F74%29.90 "Hg
* Reported Apr 21 8:00 AM — May 6 8:00 AM, Lage, Weather by CustomWeather, © 2015

Note: Actual official high and low records may vary slightly from our data, if they occured in-between our weather recording intervals... More about our weather records

Advertising

Lage weather history for previous 24 hours

 ConditionsComfort  
Time TempWeatherWind HumidityBarometerVisibility
8:00 AM
Wed, May 6
54 °FOvercast.3 mph70%29.88 "Hg25 mi
7:00 AM51 °FPassing clouds.2 mph77%29.88 "Hg25 mi
6:00 AM52 °FPassing clouds.3 mph77%29.86 "Hg25 mi
5:00 AM52 °FPassing clouds.2 mph76%29.85 "Hg25 mi
4:00 AM52 °FPassing clouds.2 mph75%29.85 "Hg25 mi
3:00 AM50 °FPassing clouds.1 mph81%29.86 "Hg22 mi
2:00 AM46 °FPassing clouds.1 mph94%29.85 "Hg15 mi
1:00 AM46 °FClear.1 mph93%29.85 "Hg11 mi
12:00 AM50 °FClear.3 mph85%29.85 "Hg19 mi
11:00 PM
Tue, May 5
48 °FClear.2 mph89%29.84 "Hg17 mi
10:00 PM55 °FClear.3 mph73%29.82 "Hg19 mi
9:00 PM58 °FClear.6 mph69%29.78 "Hg34 mi
8:00 PM59 °FPassing clouds.6 mph75%29.74 "Hg25 mi
7:00 PM59 °FLight rain. Overcast.7 mph77%29.72 "Hg28 mi
6:00 PM59 °FDrizzle. Overcast.7 mph90%29.68 "Hg9 mi
5:00 PM66 °FOvercast.16 mph60%29.61 "Hg15 mi
4:00 PM74 °FOvercast.10 mph43%29.50 "Hg17 mi
3:00 PM75 °FScattered clouds.10 mph43%29.50 "Hg14 mi
2:00 PM74 °FSunny.8 mph61%29.47 "Hg7 mi
1:00 PM70 °FPartly sunny.7 mph69%29.50 "Hg18 mi
12:00 PM65 °FOvercast.5 mph79%29.54 "Hg31 mi
11:00 AM64 °FOvercast.2 mph82%29.54 "Hg19 mi
10:00 AM66 °FOvercast.3 mph73%29.53 "Hg28 mi
9:00 AM66 °FOvercast.3 mph75%29.50 "Hg34 mi
Weather by CustomWeather, © 2015

See weather overviewHow to use our weather pages